星链-4641 (STARLINK-4641 )

导读

STARLINK-4641是美国太空探索技术公司星链互联网卫星星座中的一颗卫星,于2022年9月5日发射入轨,归属美国航天项目。星链系统旨在为全球提供覆盖广泛的低轨互联网服务,该卫星承担着网络信号传输任务,是星链大规模组网进程中,补充完善星座覆盖能力的重要单元。

基本信息
目录编号:
53730
目录名称:
STARLINK-4641
国际标识:
2022-107AG
轨道中心:
EARTH
卫星名称:
星链-4641
卫星全名:
星链-4641 (STARLINK-4641 )
卫星状态:
在轨 (已飞行1468 天)
发射日期:
2022-09-05 UTC
国别 :
美国 (US)
星等 :
--
该卫星已列入 空间交会检测服务 Space Conjunction Data Service (SCDS) ,当前飞行风险评估等级: 无高风险
轨道信息
数据来源 国际轨道数据 AOE轨道数据
星历时间 2026-09-12T09:01:33+0800
11小时前
查看轨道信息
2026-09-09T22:00:00+0800
2天前
查看轨道信息
半长轴 6840.867km 6840.868km
偏心率 0.0001164 0.0001081
轨道倾角 53.161° 53.159°
近地点辐角 80.442° 123.082°
升交点赤经 123.114° 134.613°
平近点角 279.672° 324.137°
近地点 461.933km 461.991km
远地点 463.527km 463.471km
周期 93.848分钟 93.848分钟
每日圈数 15.34391 15.343909
详细信息
固有亮度:
5
最大亮度:
2.5
卫星平台:
Starlink v1.5
覆盖范围:
全球
运营商:
太空探索技术公司
运营商所在国:
美国
制造商(研发单位):
太空探索技术公司
制造商所在国:
美国
使用方式:
暂无
卫星简介
星链(Starlink)计划是由太空探索技术公司(SpaceX)提出的一个巨型低轨卫星互联网星座项目,计划在2019年至2024年间在太空搭建由约1.2万颗卫星组成的“星链”网络,其中1584颗将部署在地球上空550千米处的近地轨道,并从2020年开始工作。该卫星仍在工作。
2D轨道图
3D轨道图
轨道高度分析图
轨道倾角分析图
轨道综合分析图
查看轨道综合分析图
与全量物体交会距离演化趋势
与全量物体交会风险概率演化趋势